EDT,Max TemperatureF,Mean TemperatureF,Min TemperatureF,Max Dew PointF,MeanDew PointF,Min DewpointF,Max Humidity, Mean Humidity, Min Humidity, Max Sea Level PressureIn, Mean Sea Level PressureIn, Min Sea Level PressureIn, Max VisibilityMiles, Mean VisibilityMiles, Min VisibilityMiles, Max Wind SpeedMPH, Mean Wind SpeedMPH, Max Gust SpeedMPH,PrecipitationIn, CloudCover, Events, WindDirDegrees
2012-10-1,63,53,42,49,43,38,92,70,48,29.96,29.91,29.82,10,8,2,13,5,21,0.15,5,Rain,75
2012-10-2,72,63,54,64,58,50,93,83,73,29.88,29.82,29.78,9,5,2,15,6,20,0.17,8,Rain,87
2012-10-3,72,65,58,64,58,51,93,73,53,30.15,30.02,29.86,10,6,0,22,7,28,0.00,7,Fog-Rain,219
2012-10-4,73,64,55,54,52,50,86,66,46,30.19,30.15,30.11,8,7,5,21,7,25,0.00,5,,210
2012-10-5,70,60,49,56,52,44,83,72,61,30.10,30.03,29.95,9,6,2,15,8,18,0.28,6,Rain,266
2012-10-6,55,48,41,45,37,32,92,69,46,30.13,30.02,29.92,10,7,3,20,9,26,0.34,6,Rain,300
2012-10-7,48,42,36,37,35,33,85,73,60,30.18,30.13,30.08,10,8,6,15,6,20,0.02,6,Rain,260
2012-10-8,50,42,33,36,32,30,89,70,50,30.27,30.22,30.18,8,7,5,12,5,16,0.00,4,,197
2012-10-9,58,46,33,39,34,30,92,66,39,30.22,30.12,30.00,10,7,4,16,7,21,0.00,1,,189
2012-10-10,54,46,38,43,36,26,89,65,41,30.19,29.99,29.90,10,8,1,22,12,33,0.01,5,Rain,256
2012-10-11,57,44,30,30,28,26,85,59,32,30.30,30.21,30.14,10,10,7,21,9,24,0.00,1,,235
2012-10-12,53,45,36,39,30,23,76,54,32,30.43,30.31,30.15,10,10,9,18,8,24,T,4,Rain,1
2012-10-13,64,50,35,49,35,25,70,57,43,30.40,30.24,30.02,10,9,6,22,11,28,0.01,5,Rain,160
2012-10-14,74,68,61,59,54,51,84,67,49,30.03,29.84,29.64,10,7,1,35,18,45,0.40,7,Rain,208
2012-10-15,65,56,47,56,45,41,86,76,66,29.92,29.79,29.62,10,8,2,29,12,38,0.04,8,Rain,275
2012-10-16,57,51,45,40,37,35,76,62,47,30.00,29.94,29.86,10,9,7,10,6,17,0.00,6,,243
2012-10-17,72,59,45,47,42,37,71,55,38,29.88,29.81,29.69,10,9,7,17,10,20,0.00,5,,173
2012-10-18,63,55,47,48,43,40,86,68,49,29.79,29.67,29.59,10,9,2,29,14,44,0.04,5,Rain,173
2012-10-19,63,54,45,43,39,30,86,59,32,29.76,29.68,29.59,10,9,6,24,13,32,0.11,7,Rain,181
2012-10-20,52,48,44,43,40,37,89,74,59,29.96,29.77,29.68,10,8,4,21,10,26,0.02,7,Rain,233
2012-10-21,60,51,42,40,38,35,83,62,40,30.14,30.09,29.97,10,8,6,15,6,20,0.00,4,,240
2012-10-22,73,57,41,52,44,36,82,62,41,30.18,30.12,30.05,10,8,7,13,7,15,0.00,2,,189
2012-10-23,71,64,57,56,52,49,80,66,51,30.05,30.03,29.99,10,8,4,25,7,32,0.03,7,Rain,226
2012-10-24,76,68,59,55,52,48,84,65,46,30.12,30.07,30.03,9,8,7,16,7,20,0.09,4,Rain,212
2012-10-25,79,67,55,50,47,44,77,54,30,30.10,30.04,29.97,10,9,7,21,10,26,0.00,1,,180
2012-10-26,64,56,48,52,46,44,86,69,52,30.14,30.08,29.97,10,8,2,18,11,26,0.02,6,Rain,355
2012-10-27,48,46,44,44,42,40,93,85,76,30.09,30.06,30.03,10,6,2,20,12,25,0.52,8,Rain,12
2012-10-28,45,43,40,41,38,36,89,83,76,30.07,30.00,29.93,10,5,2,23,15,30,0.90,8,Rain,11
2012-10-29,42,41,40,38,37,36,86,83,79,29.93,29.73,29.36,10,5,3,37,19,49,0.94,8,Rain,353
2012-10-30,47,44,40,43,40,36,92,86,79,29.38,29.24,29.15,5,2,2,38,19,48,1.11,8,Rain,338
2012-10-31,41,39,36,38,35,33,92,89,85,29.66,29.54,29.37,10,5,1,21,14,26,0.09,8,Rain-Snow,280